TimeEST,TemperatureF,Dew PointF,Humidity,Sea Level PressureIn,VisibilityMPH,Wind Direction,Wind SpeedMPH,Gust SpeedMPH,PrecipitationIn,Events,Conditions,WindDirDegrees,DateUTC
12:15 AM,32.0,24.8,75,30.05,10.0,West,4.6,-,N/A,,Overcast,270,2012-12-30 05:15:00
12:35 AM,33.8,23.0,65,30.05,10.0,WNW,5.8,-,N/A,,Mostly Cloudy,290,2012-12-30 05:35:00
12:55 AM,33.8,23.0,65,30.06,10.0,West,4.6,-,N/A,,Scattered Clouds,270,2012-12-30 05:55:00
1:15 AM,33.8,21.2,60,30.06,10.0,Calm,Calm,-,N/A,,Scattered Clouds,0,2012-12-30 06:15:00
1:35 AM,33.8,21.2,60,30.07,10.0,WNW,4.6,-,N/A,,Scattered Clouds,300,2012-12-30 06:35:00
1:55 AM,33.8,21.2,60,30.08,10.0,Calm,Calm,-,N/A,,Scattered Clouds,0,2012-12-30 06:55:00
2:15 AM,33.8,21.2,60,30.08,10.0,West,4.6,-,N/A,,Scattered Clouds,270,2012-12-30 07:15:00
2:35 AM,32.0,21.2,64,30.09,10.0,West,5.8,-,N/A,,Clear,270,2012-12-30 07:35:00
2:55 AM,32.0,21.2,64,30.10,10.0,West,4.6,-,N/A,,Clear,270,2012-12-30 07:55:00
3:15 AM,32.0,19.4,60,30.11,10.0,Calm,Calm,-,N/A,,Clear,0,2012-12-30 08:15:00
3:35 AM,32.0,19.4,60,30.11,10.0,Calm,Calm,-,N/A,,Clear,0,2012-12-30 08:35:00
3:55 AM,30.2,21.2,69,30.12,10.0,Calm,Calm,-,N/A,,Clear,0,2012-12-30 08:55:00
4:15 AM,30.2,21.2,69,30.13,10.0,Calm,Calm,-,N/A,,Clear,0,2012-12-30 09:15:00
4:35 AM,32.0,21.2,64,30.13,10.0,WNW,3.5,-,N/A,,Clear,290,2012-12-30 09:35:00
4:55 AM,32.0,19.4,60,30.14,10.0,West,3.5,-,N/A,,Clear,270,2012-12-30 09:55:00
5:15 AM,30.2,21.2,69,30.15,10.0,Calm,Calm,-,N/A,,Clear,0,2012-12-30 10:15:00
5:35 AM,30.2,21.2,69,30.15,10.0,Calm,Calm,-,N/A,,Clear,0,2012-12-30 10:35:00
5:55 AM,32.0,19.4,60,30.17,10.0,WNW,3.5,-,N/A,,Clear,300,2012-12-30 10:55:00
6:15 AM,32.0,19.4,60,30.19,10.0,WNW,4.6,-,N/A,,Clear,290,2012-12-30 11:15:00
6:35 AM,32.0,19.4,60,30.20,10.0,Calm,Calm,-,N/A,,Clear,0,2012-12-30 11:35:00
6:55 AM,30.2,19.4,64,30.21,10.0,Calm,Calm,-,N/A,,Clear,0,2012-12-30 11:55:00
7:15 AM,28.4,21.2,74,30.22,10.0,WNW,3.5,-,N/A,,Clear,290,2012-12-30 12:15:00
7:35 AM,30.2,19.4,64,30.24,10.0,Calm,Calm,-,N/A,,Clear,0,2012-12-30 12:35:00
7:55 AM,28.4,19.4,69,30.26,10.0,Calm,Calm,-,N/A,,Clear,0,2012-12-30 12:55:00
8:15 AM,30.2,21.2,69,30.27,10.0,Calm,Calm,-,N/A,,Clear,0,2012-12-30 13:15:00
8:35 AM,30.2,23.0,75,30.28,10.0,Calm,Calm,-,N/A,,Clear,0,2012-12-30 13:35:00
8:55 AM,32.0,23.0,69,30.28,10.0,Calm,Calm,-,N/A,,Clear,0,2012-12-30 13:55:00
9:15 AM,33.8,21.2,60,30.30,10.0,Calm,Calm,-,N/A,,Clear,0,2012-12-30 14:15:00
9:35 AM,35.6,19.4,52,30.31,10.0,Calm,Calm,-,N/A,,Clear,0,2012-12-30 14:35:00
9:55 AM,35.6,19.4,52,30.32,10.0,Calm,Calm,-,N/A,,Clear,0,2012-12-30 14:55:00
10:15 AM,37.4,19.4,48,30.33,10.0,West,3.5,-,N/A,,Clear,260,2012-12-30 15:15:00
10:35 AM,37.4,19.4,48,30.35,10.0,Calm,Calm,-,N/A,,Clear,0,2012-12-30 15:35:00
10:55 AM,39.2,19.4,45,30.36,10.0,West,8.1,-,N/A,,Clear,270,2012-12-30 15:55:00
11:15 AM,39.2,17.6,42,30.35,10.0,West,8.1,-,N/A,,Clear,270,2012-12-30 16:15:00
11:35 AM,41.0,17.6,39,30.35,10.0,SW,6.9,-,N/A,,Clear,230,2012-12-30 16:35:00
11:55 AM,41.0,19.4,42,30.33,10.0,WSW,4.6,-,N/A,,Clear,250,2012-12-30 16:55:00
12:15 PM,42.8,19.4,39,30.34,10.0,West,5.8,-,N/A,,Clear,270,2012-12-30 17:15:00
12:35 PM,42.8,17.6,36,30.33,10.0,WSW,5.8,-,N/A,,Clear,240,2012-12-30 17:35:00
12:55 PM,42.8,17.6,36,30.33,10.0,WSW,5.8,-,N/A,,Clear,240,2012-12-30 17:55:00
1:15 PM,44.6,17.6,34,30.33,10.0,West,3.5,-,N/A,,Clear,270,2012-12-30 18:15:00
1:35 PM,44.6,17.6,34,30.32,10.0,West,4.6,-,N/A,,Clear,260,2012-12-30 18:35:00
1:55 PM,46.4,17.6,32,30.32,10.0,SW,9.2,-,N/A,,Clear,220,2012-12-30 18:55:00
2:15 PM,46.4,17.6,32,30.32,10.0,WSW,8.1,-,N/A,,Clear,250,2012-12-30 19:15:00
2:35 PM,46.4,15.8,29,30.32,10.0,WNW,3.5,-,N/A,,Clear,290,2012-12-30 19:35:00
2:55 PM,46.4,17.6,32,30.31,10.0,SW,8.1,-,N/A,,Clear,230,2012-12-30 19:55:00
3:15 PM,46.4,17.6,32,30.31,10.0,West,8.1,-,N/A,,Clear,260,2012-12-30 20:15:00
3:35 PM,46.4,17.6,32,30.32,10.0,WSW,8.1,-,N/A,,Clear,240,2012-12-30 20:35:00
3:55 PM,46.4,17.6,32,30.32,10.0,WSW,5.8,-,N/A,,Clear,240,2012-12-30 20:55:00
4:15 PM,46.4,17.6,32,30.32,10.0,WSW,8.1,-,N/A,,Clear,240,2012-12-30 21:15:00
4:35 PM,44.6,19.4,37,30.32,10.0,WSW,4.6,-,N/A,,Clear,240,2012-12-30 21:35:00
4:55 PM,44.6,19.4,37,30.33,10.0,SW,8.1,-,N/A,,Clear,230,2012-12-30 21:55:00
5:15 PM,41.0,19.4,42,30.33,10.0,WSW,5.8,-,N/A,,Clear,240,2012-12-30 22:15:00
5:35 PM,41.0,19.4,42,30.33,10.0,Calm,Calm,-,N/A,,Clear,0,2012-12-30 22:35:00
5:55 PM,35.6,21.2,56,30.34,10.0,West,3.5,-,N/A,,Clear,260,2012-12-30 22:55:00
6:15 PM,35.6,21.2,56,30.34,10.0,Calm,Calm,-,N/A,,Clear,0,2012-12-30 23:15:00
6:35 PM,33.8,21.2,60,30.35,10.0,Calm,Calm,-,N/A,,Clear,0,2012-12-30 23:35:00
6:55 PM,33.8,23.0,65,30.36,10.0,Calm,Calm,-,N/A,,Clear,0,2012-12-30 23:55:00
7:15 PM,32.0,23.0,69,30.36,10.0,Calm,Calm,-,N/A,,Clear,0,2012-12-31 00:15:00
7:35 PM,30.2,23.0,75,30.37,10.0,Calm,Calm,-,N/A,,Clear,0,2012-12-31 00:35:00
7:55 PM,30.2,23.0,75,30.37,10.0,Calm,Calm,-,N/A,,Clear,0,2012-12-31 00:55:00
8:15 PM,28.4,23.0,80,30.36,10.0,Calm,Calm,-,N/A,,Clear,0,2012-12-31 01:15:00
8:35 PM,30.2,23.0,75,30.36,10.0,Calm,Calm,-,N/A,,Clear,0,2012-12-31 01:35:00
8:55 PM,28.4,23.0,80,30.37,10.0,Calm,Calm,-,N/A,,Clear,0,2012-12-31 01:55:00
9:15 PM,28.4,23.0,80,30.38,10.0,Calm,Calm,-,N/A,,Clear,0,2012-12-31 02:15:00
9:35 PM,28.4,24.8,86,30.38,10.0,Calm,Calm,-,N/A,,Clear,0,2012-12-31 02:35:00
9:55 PM,26.6,23.0,86,30.38,7.0,Calm,Calm,-,N/A,,Clear,0,2012-12-31 02:55:00
10:15 PM,28.4,23.0,80,30.37,7.0,Calm,Calm,-,N/A,,Clear,0,2012-12-31 03:15:00
10:35 PM,28.4,23.0,80,30.37,10.0,Calm,Calm,-,N/A,,Clear,0,2012-12-31 03:35:00
10:55 PM,26.6,23.0,86,30.36,10.0,Calm,Calm,-,N/A,,Clear,0,2012-12-31 03:55:00
11:15 PM,26.6,23.0,86,30.36,7.0,Calm,Calm,-,N/A,,Clear,0,2012-12-31 04:15:00
11:35 PM,26.6,23.0,86,30.36,10.0,Calm,Calm,-,N/A,,Clear,0,2012-12-31 04:35:00
11:55 PM,26.6,23.0,86,30.35,10.0,Calm,Calm,-,N/A,,Clear,0,2012-12-31 04:55:00